Погода в Таскаево

Россия / Новосибирская область     55°05′53″N   78°36′39″E
темп.,
°C
ветер,
м/с
пор.,
м/с
влажн.,
%
обл.,
%
осадки,
мм/ч
давл.,
гПа
погр.,
м
18 мая, ср
ср1801:00+16зюз51150100 0.0 1006447
04:00+14юз4952100 0.0 1007134
07:00+13з356399 0.0 100975
10:00+16з46485 0.0 1010402
13:00+19зюз4538100 0.0 10101153
16:00+18ююз4444100 0.0 1010906
19:00+14зюз1278100 0.6 101078
22:00+13ююв337899 0.1 100944
19 мая, чт
чт1901:00+13ююв2275100 0.1 100918
04:00+12ссз4587100 0.1 100777
07:00+12ссв3497100 3.0 100685
10:00+11юв1297100 5.9 100570
13:00+14юз599035 6.1 1005384
16:00+15зюз71364100 0.4 1005486
19:00+17зюз7114134 0.4 10051566
22:00+13юз6125778 0.3 1007257
20 мая, пт
пт2001:00+10юз5107133 0.5 1009212
04:00+11юз612665 0.0 1009263
07:00+11юз713685 0.0 1010391
10:00+13зюз1014595 0.0 1011826
13:00+14зюз10134821 0.0 1013961
16:00+16зюз812405 0.0 10131366
19:00+16юз71144100 0.0 10111597
22:00+14юз71359100 0.0 1011303
21 мая, сб
сб2101:00+12юз4970100 0.0 1012171
04:00+11ююз61274100 0.0 1011160
07:00+12ю4107190 0.0 1010218
10:00+17ююз7115116 0.0 1009418
13:00+22ююз810390 0.0 10071009
16:00+23ю8103383 0.0 10051470
19:00+23ю6103753 0.0 10041154
22:00+18юв5115424 0.0 1003133
22 мая, вс
вс2201:00+17юв6135435 0.0 1001198
04:00+15юв613585 0.0 999179
07:00+14юв61266100 0.0 998168
10:00+18зюз91253100 0.0 999548
13:00+16з111361100 0.0 1003609
16:00+16з79472 0.0 1006911
19:00+16з78420 0.0 1008982
22:00+12зюз45500 0.0 101063